Miscellaneous Local Product
Issued by NWS Hastings, NE

Home | Current Version | Previous Version | Text Only | Print | Product List | Glossary On
Versions: 1 2 3 4 5 6 7 8 9 10 11 12 13 14 15 16 17 18 19 20 21 22 23 24 25 26 27 28 29 30 31 32 33 34 35 36 37 38 39 40 41 42 43 44 45 46 47 48 49 50
000
AXUS43 KGID 050402
MISGRI

GID CWA HOURLY WEATHER ROUNDUP
NATIONAL WEATHER SERVICE HASTINGS NE
1100 PM CDT MON MAY 04 2015

NOTE: "FAIR" INDICATES FEW OR NO CLOUDS BELOW 12,000 FEET WITH NO
SIGNIFICANT WEATHER AND/OR OBSTRUCTIONS TO VISIBILITY.

...SOUTH CENTRAL NEBRASKA...

CITY           SKY/WX    TMP DP  RH WIND       PRES   REMARKS
GRAND ISLAND   CLOUDY    54  53  97 NE8       30.11F FOG
HASTINGS       CLOUDY    55  54  96 NE6       30.10R FOG
KEARNEY        CLOUDY    54  52  94 NE10      30.10F
ORD            CLOUDY    54  49  83 E6        30.11R
YORK           CLOUDY    57  57 100 NE7       30.10R FOG
AURORA         CLOUDY    56  56 100 NE9       30.10S FOG
LEXINGTON      CLOUDY    53  51  94 E8        30.11F FOG
HOLDREGE       CLOUDY    54  52  92 NE7       30.10R FOG
HEBRON         CLOUDY    60  58  92 E7        30.07S THUNDER FOG

...NEBRASKA PANHANDLE...

CITY           SKY/WX    TMP DP  RH WIND       PRES   REMARKS
CHADRON        PTCLDY    44  41  89 CALM      30.11R
ALLIANCE       MOCLDY    49  38  65 SE10      30.12R
SCOTTSBLUFF    MOCLDY    50  40  68 SE9       30.11R
SIDNEY         CLOUDY    47  41  80 E10       30.13S

...WESTERN AND NORTH CENTRAL NEBRASKA...

CITY           SKY/WX    TMP DP  RH WIND       PRES   REMARKS
VALENTINE      MOCLDY    54  36  50 S6        30.12S
AINSWORTH      MOCLDY    50  39  64 S5        30.14R
ONEILL         MOCLDY    56  46  69 SE5       30.13R
BROKEN BOW     CLOUDY    54  50  86 E8        30.11F
IMPERIAL       CLOUDY    49  45  86 E7        30.13R
NORTH PLATTE   CLOUDY    51  48  89 E8        30.12R
MCCOOK         CLOUDY    52  50  93 E7        30.11R FOG

...EASTERN NEBRASKA...

CITY           SKY/WX    TMP DP  RH WIND       PRES   REMARKS
NORFOLK        CLOUDY    56  51  84 E3        30.13R
SO SIOUX CITY  CLOUDY    58  49  72 SE5       30.13R
TEKAMAH        LGT RAIN  58  55  90 N7        30.10R
COLUMBUS       CLOUDY    55  50  82 NE5       30.13R
ALBION         CLOUDY    55  51  85 E7        30.12R
OMAHA EPPLEY   CLOUDY    60  56  86 CALM      30.08R
OFFUTT AFB     CLOUDY    60  57  89 NE8       30.08R
MILLARD        CLOUDY    60  56  86 E3        30.08R
LINCOLN        CLOUDY    60  58  92 CALM      30.10R FOG
NEBRASKA CITY  LGT RAIN  63  63 100 S6        30.08R
BEATRICE       TSTM      63  62  96 CALM      30.09R
FALLS CITY     LGT RAIN  62  60  93 S10       30.08R

...NORTHERN KANSAS...

CITY           SKY/WX    TMP DP  RH WIND       PRES   REMARKS
GOODLAND       CLOUDY    51  47  86 E8        30.13R
HILL CITY      CLOUDY    59  54  83 NE3       30.09F HAZE
NORTON         CLOUDY    55  50  82 NE3       30.09F
PHILLIPSBURG   LGT RAIN  61  61 100 N3        30.08F
SMITH CENTER   CLOUDY    57  57 100 E3        30.08F FOG
HAYS           CLOUDY    61  52  72 NE9       30.01F
RUSSELL        LGT RAIN  61  59  93 E16       30.03F FOG
CONCORDIA      TSTM      62  59  90 SE9       30.07R FOG
SALINA         HVY RAIN  64  61  90 W7        30.09R FOG
TOPEKA         CLOUDY    63  61  93 W14       30.17R



USA.gov is the U.S. government's official web portal to all federal, state and local government web resources and services.